DW7957 Weather Reports


time (UTC)temp
F
wind
direction
speed
knots
gust
knots
rain 1hr
in
rain 24hr
in
rain mn
in
humidity
%
barometer
mb
20260504050747 52 256 0.0 1.7 0.00 0.00 0.00 52 1004.8
20260504045722 53 256 0.0 0.9 0.00 0.00 0.00 50 1004.9
20260504044731 53 256 0.0 1.7 0.00 0.00 0.00 49 1005.0
20260504043720 53 256 1.7 2.6 0.00 0.00 0.00 49 1005.1
20260504042721 53 256 0.9 2.6 0.00 0.00 0.00 49 1005.3
20260504041738 53 256 0.9 2.6 0.00 0.00 0.00 49 1005.4
20260504040715 53 256 0.9 1.7 0.00 0.00 0.00 48 1005.5
20260504035721 53 256 0.9 2.6 0.00 0.00 0.00 50 1005.7
20260504034718 53 256 0.0 1.7 0.00 0.00 0.00 51 1005.8
20260504033718 53 256 0.9 1.7 0.00 0.00 0.00 50 1005.8
20260504032731 54 256 0.0 0.9 0.00 0.00 0.00 50 1006.1
20260504031732 54 256 0.0 0.0 0.00 0.00 0.00 50 1006.2
20260504030744 55 256 0.0 0.0 0.00 0.00 0.00 48 1006.3
20260504025725 55 256 0.0 0.0 0.00 0.00 0.00 47 1006.5
20260504024733 56 256 0.0 0.9 0.00 0.00 0.00 46 1006.5
20260504023743 57 256 0.0 0.9 0.00 0.00 0.00 45 1006.5
20260504022722 57 256 0.0 0.9 0.00 0.00 0.00 45 1006.4
20260504021732 59 256 0.0 0.9 0.00 0.00 0.00 43 1006.5
20260504020732 60 256 0.0 0.9 0.00 0.00 0.00 42 1006.4
20260504015732 61 256 0.9 2.6 0.00 0.00 0.00 40 1006.4
20260504014722 61 256 0.0 2.6 0.00 0.00 0.00 39 1006.2
20260504013731 62 256 0.9 2.6 0.00 0.00 0.00 37 1006.2
20260504012735 63 256 0.9 3.5 0.00 0.00 0.00 36 1006.3
20260504011740 64 256 0.9 2.6 0.00 0.00 0.00 35 1006.2
20260504010718 65 256 0.0 2.6 0.00 0.00 0.00 33 1006.1
20260504005717 66 256 0.9 8.7 0.00 0.00 0.00 32 1006.2
20260504004722 67 261 3.5 7.0 0.00 0.00 0.00 30 1006.3
20260504003729 67 277 1.7 8.7 0.00 0.00 0.00 28 1006.2
20260504002732 68 313 3.5 7.8 0.00 0.00 0.00 28 1006.3
20260504001718 69 265 2.6 7.0 0.00 0.00 0.00 28 1006.4
20260504000732 69 288 2.6 9.6 0.00 0.00 0.00 27 1006.4
20260503235719 70 274 2.6 9.6 0.00 0.00 0.00 27 1006.4
20260503234716 70 275 3.5 10.4 0.00 0.00 0.00 27 1006.4
20260503233751 70 318 5.2 13.9 0.00 0.00 0.00 27 1006.4
20260503232725 70 271 3.5 10.4 0.00 0.00 0.00 27 1006.5
20260503231721 71 293 3.5 11.3 0.00 0.00 0.00 26 1006.5
20260503230718 71 263 2.6 11.3 0.00 0.00 0.00 27 1006.4
20260503225722 71 5 3.5 13.0 0.00 0.00 0.00 27 1006.4
20260503224716 71 329 5.2 11.3 0.00 0.00 0.00 28 1006.3
20260503223720 71 283 5.2 11.3 0.00 0.00 0.00 26 1006.2
20260503222717 71 292 3.5 14.8 0.00 0.00 0.00 27 1006.4
20260503221729 71 305 4.3 12.2 0.00 0.00 0.00 28 1006.2
20260503220718 71 327 5.2 13.9 0.00 0.00 0.00 27 1006.2
20260503215754 71 291 5.2 16.5 0.00 0.00 0.00 27 1006.4
20260503214720 71 310 4.3 13.9 0.00 0.00 0.00 27 1006.4
20260503213731 71 271 4.3 12.2 0.00 0.00 0.00 30 1006.3
20260503212727 70 324 5.2 14.8 0.00 0.00 0.00 29 1006.5
20260503211722 71 277 5.2 16.5 0.00 0.00 0.00 28 1006.4
20260503210735 70 279 7.0 14.8 0.00 0.00 0.00 28 1006.6
20260503205732 70 247 5.2 14.8 0.00 0.00 0.00 27 1006.7
20260503204721 70 316 5.2 20.0 0.00 0.00 0.00 28 1006.9
20260503203738 70 274 4.3 16.5 0.00 0.00 0.00 30 1006.8
20260503202728 71 355 5.2 14.8 0.00 0.00 0.00 31 1006.8
20260503201722 70 315 6.1 16.5 0.00 0.00 0.00 31 1006.9
20260503200717 71 288 6.1 11.3 0.00 0.00 0.00 29 1006.9
20260503195720 70 241 7.8 17.4 0.00 0.00 0.00 30 1007.2
20260503194727 71 261 3.5 12.2 0.00 0.00 0.00 31 1007.2
20260503193731 70 213 6.1 11.3 0.00 0.00 0.00 32 1007.2
20260503192740 69 338 4.3 18.2 0.00 0.00 0.00 32 1007.3
20260503191731 69 328 7.8 13.9 0.00 0.00 0.00 29 1007.3
20260503190738 69 313 6.1 15.6 0.00 0.00 0.00 31 1007.3
20260503185731 69 325 7.0 14.8 0.00 0.00 0.00 31 1007.4
20260503184742 68 294 8.7 13.0 0.00 0.00 0.00 30 1007.3
20260503183757 68 292 7.0 13.0 0.00 0.00 0.00 33 1007.2
20260503182723 68 336 5.2 16.5 0.00 0.00 0.00 35 1007.3
20260503181735 68 296 6.1 13.9 0.00 0.00 0.00 33 1007.5
20260503180722 68 311 6.1 12.2 0.00 0.00 0.00 36 1007.4
20260503175717 68 324 9.6 15.6 0.00 0.00 0.00 35 1007.5
20260503174742 68 288 6.1 14.8 0.00 0.00 0.00 36 1007.5
20260503173723 67 319 7.0 13.9 0.00 0.00 0.00 36 1007.7
20260503172718 67 305 6.1 18.2 0.00 0.00 0.00 37 1007.6
20260503171717 67 355 4.3 15.6 0.00 0.00 0.00 38 1007.6
20260503170715 66 317 6.1 15.6 0.00 0.00 0.00 40 1007.6
20260503150718 61 283 4.3 9.6 0.00 0.00 0.00 46 1007.0
20260503130719 53 215 7.8 13.9 0.00 0.00 0.00 51 1007.0
20260503110716 52 181 7.0 13.0 0.00 0.00 0.00 49 1007.0
20260503080753 55 196 8.7 18.2 0.00 0.00 0.00 43 1009.2
20260503072720 56 211 4.3 8.7 0.00 0.00 0.00 44 1010.3
20260503071727 56 183 5.2 12.2 0.00 0.00 0.00 43 1010.3
20260503070732 57 242 5.2 13.0 0.00 0.00 0.00 44 1010.3